Cheyenne, WY

7:02 AM MDT on March 25, 2017 (GMT -0600)
Cheyenne

Weather History for KCYS - December, 2013

Change the Weather History Date:

Monday, December 23, 2013

  Actual Average Record
Temperature  
Mean Temperature 25 °F 28 °F  
Max Temperature 39 °F 38 °F 60 °F (1955)
Min Temperature 11 °F 17 °F -24 °F (1983)
Degree Days  
Heating Degree Days 40 37  
Month to date heating degree days 946 861  
Since 1 July heating degree days 2650 2609  
Cooling Degree Days 0 0  
Month to date cooling degree days 0 0  
Year to date cooling degree days 520 348  
Moisture  
Dew Point 17 °F    
Average Humidity 70    
Maximum Humidity 88    
Minimum Humidity 52    
Precipitation  
Precipitation T in 0.02 in 0.33 in (1948)
Month to date precipitation 0.42 0.38  
Year to date precipitation 18.10 15.83  
Snow  
Snow 0.10 in 0.20 in 4.30 in (1987)
Month to date snowfall 9.7 6.4  
Since 1 July snowfall 25.3 20.7  
Snow Depth 2.00 in    
Sea Level Pressure  
Sea Level Pressure 30.24 in    
Wind  
Wind Speed 13 mph (SW)    
Max Wind Speed 31 mph    
Max Gust Speed 39 mph    
Visibility 9 miles    
Events      
T = Trace of Precipitation, MM = Missing Value Source: NWS Daily Summary

Daily Weather History Graph

Daily Weather History Graph

Search for Another Location

Airport or City:

Trip Planner

Search our weather history database for the weather conditions in past years. The results will help you decide how hot, cold, wet, or windy it might be!

Date:

Astronomy

Dec. 23, 2013 Rise Set
Actual Time 7:22 AM MST 4:34 PM MST
Civil Twilight 6:51 AM MST 5:06 PM MST
Nautical Twilight 6:16 AM MST 5:40 PM MST
Astronomical Twilight 5:42 AM MST 6:14 PM MST
Moon 10:50 PM MST (12/23) 10:45 AM MST (12/23)
Length of Visible Light 10h 15m
Length of Day
9h 12m
Waning Gibbous, 67% of the Moon is Illuminated
Dec 23
Waning Gibbous
Dec 25
Last Quarter
Jan 1
New
Jan 7
First Quarter
Jan 15
Full

Hourly Weather History & Observations

Time (MST) Temp. Windchill Dew Point Humidity Pressure Visibility Wind Dir Wind Speed Gust Speed Precip Events Conditions
12:14 AM 12.2 °F - 10.4 °F 92% 30.12 in 2.5 mi Calm Calm - N/A   Overcast
12:22 AM 12.2 °F - 8.6 °F 85% 30.11 in 6.0 mi Calm Calm - N/A   Overcast
12:53 AM 12.0 °F - 9.0 °F 88% 30.29 in 10.0 mi Calm Calm - N/A   Overcast
1:53 AM 12.9 °F 3.8 °F 9.0 °F 84% 30.29 in 3.0 mi South 5.8 mph - N/A   Overcast
2:53 AM 14.0 °F 2.0 °F 10.9 °F 88% 30.28 in 7.0 mi SSW 9.2 mph - N/A   Overcast
3:53 AM 16.0 °F 2.9 °F 12.0 °F 84% 30.27 in 10.0 mi SW 11.5 mph - 0.00 in   Overcast
4:53 AM 17.1 °F 5.0 °F 12.9 °F 84% 30.28 in 10.0 mi SW 10.4 mph - 0.00 in   Overcast
5:53 AM 19.0 °F 12.3 °F 12.0 °F 74% 30.33 in 10.0 mi Variable 4.6 mph - N/A   Overcast
6:53 AM 15.1 °F 1.8 °F 10.9 °F 84% 30.38 in 10.0 mi SSW 11.5 mph - N/A   Mostly Cloudy
7:22 AM 15.8 °F 3.4 °F 10.4 °F 79% 30.17 in 10.0 mi SW 10.4 mph - N/A   Overcast
7:49 AM 12.2 °F 0.7 °F 8.6 °F 85% 30.17 in 10.0 mi WSW 8.1 mph - N/A   Scattered Clouds
7:53 AM 12.0 °F 0.5 °F 9.0 °F 88% 30.42 in 10.0 mi SW 8.1 mph - N/A   Scattered Clouds
8:53 AM 16.0 °F 5.3 °F 10.9 °F 81% 30.40 in 10.0 mi SW 8.1 mph - N/A   Clear
9:53 AM 21.0 °F - 15.1 °F 78% 30.39 in 10.0 mi North - - N/A   Clear
10:53 AM 24.1 °F 14.4 °F 16.0 °F 71% 30.37 in 10.0 mi SSW 9.2 mph - N/A   Clear
11:53 AM 28.0 °F 19.3 °F 19.9 °F 72% 30.31 in 10.0 mi SSW 9.2 mph - N/A   Overcast
12:53 PM 28.0 °F 18.6 °F 19.9 °F 72% 30.30 in 10.0 mi South 10.4 mph - N/A   Overcast
1:28 PM 37.4 °F 29.3 °F 24.8 °F 60% 30.10 in 10.0 mi West 12.7 mph 23.0 mph N/A   Overcast
1:53 PM 39.0 °F 30.3 °F 25.0 °F 57% 30.23 in 10.0 mi West 16.1 mph - N/A   Mostly Cloudy
2:53 PM 37.9 °F 26.8 °F 25.0 °F 60% 30.23 in 10.0 mi West 24.2 mph 31.1 mph N/A   Partly Cloudy
3:53 PM 37.0 °F 27.0 °F 24.1 °F 59% 30.23 in 10.0 mi West 18.4 mph - N/A   Clear
4:53 PM 35.1 °F 24.8 °F 21.9 °F 59% 30.23 in 10.0 mi West 17.3 mph 25.3 mph N/A   Partly Cloudy
5:53 PM 33.1 °F 24.9 °F 21.9 °F 64% 30.23 in 10.0 mi SSW 10.4 mph - N/A   Mostly Cloudy
6:53 PM 35.1 °F 24.8 °F 21.9 °F 59% 30.23 in 10.0 mi West 17.3 mph - N/A   Partly Cloudy
7:53 PM 36.0 °F 28.0 °F 19.9 °F 52% 30.24 in 10.0 mi WSW 11.5 mph 20.7 mph N/A   Clear
8:53 PM 37.0 °F 25.9 °F 21.0 °F 52% 30.17 in 10.0 mi West 23.0 mph 31.1 mph N/A   Clear
9:53 PM 37.0 °F 26.2 °F 21.9 °F 54% 30.14 in 10.0 mi WSW 21.9 mph 29.9 mph N/A   Clear
10:53 PM 37.9 °F 29.2 °F 23.0 °F 55% 30.13 in 10.0 mi SSW 15.0 mph - N/A   Scattered Clouds
11:00 PM 37.4 °F 28.5 °F 23.0 °F 56% 30.06 in 10.0 mi SW 15.0 mph 24.2 mph N/A   Scattered Clouds
11:53 PM 37.9 °F 25.9 °F 23.0 °F 55% 30.06 in 10.0 mi WSW 28.8 mph 33.4 mph N/A   Clear